Location: ??
(35.5052°N, 139.7262°E)
Time: 02:34:56
(UTC+00:00)

BREEZE-M R/B - Pass Details

Date: 20 June 2021
Orbit: 580 x 26589 km, 48.9° (Epoch: 26 July)

Event Time Altitude Azimuth Distance (km) Brightness Sun altitude
Exits shadow 16:48:46 29° 304° (NW) 1,088 3.8 -23.9°
Maximum altitude 16:49:41 33° 337° (NNW) 1,010 3.9 -23.8°
Drops below altitude 10° 16:53:54 10° 44° (NE) 2,563 6.8 -23.4°
Sets 16:57:48 0° 54° (NE) 4,484 8.1 -23.0°
